Location: Antioch
(38.0049°N, 121.8058°W)
Time: 01:15:27
(UTC+00:00)

NOSS 3-1 (C) - Pass Details

Date: 11 February 2026
Orbit: 618 x 1583 km, 63.4° (Epoch: 10 January)

Event Time Altitude Azimuth Distance (km) Brightness Sun altitude
Exits shadow 13:04:26 20° 187° (S) 1,455 4.3 -23.6°
Maximum altitude 13:07:17 53° 117° (ESE) 822 3.4 -23.0°
Drops below altitude 10° 13:12:13 10° 41° (NE) 2,286 6.0 -22.1°
Sets 13:14:52 0° 37° (NE) 3,344 6.8 -21.5°
